User: anonymous   Login
Location: North Smoke Tower Site
(30.5430°N, 82.3390°W)
Time: 23:38:13
(UTC-04:00)
Language:

Cosmos 1980 Rocket - Orbit

View from above orbital plane
View from above orbital plane
View from above satellite
View from above satellite

Ground track
Ground track

The orbit data is extracted from the following two-line orbital elements,

1 19650U 88102B   18112.33368913 -.00000046  00000-0  11069-5 0  9992
2 19650  70.9982  85.0402 0012135  69.4947 290.7477 14.15766541519740
Epoch (UTC): 22 April 2018 08:00:30
Eccentricity: 0.0012135
inclination: 70.9982°
perigee height: 831 km
apogee height: 848 km
right ascension of ascending node: 85.0402°
argument of perigee: 69.4947°
revolutions per day: 14.15766541
mean anomaly at epoch: 290.7477°
orbit number at epoch: 51974

The dashed part of the orbit path shows where the satellite is in the earth's shadow,  

DLR